FW6484 Weather Reports


time (UTC)temp
C
wind
direction
speed
KPH
gust
KPH
rain 1hr
cm
rain 24hr
cm
rain mn
cm
humidity
%
barometer
mb
20260502183040 13 311 1.6 8.0 0.00 0.00 0.00 63 1013.6
20260502181544 13 284 1.6 6.4 0.00 0.00 0.00 66 1013.6
20260502163049 13 314 3.2 9.7 0.00 0.00 0.00 73 1014.7
20260502161539 12 0 1.6 6.4 0.00 0.00 0.00 74 1015.1
20260502151557 12 284 1.6 6.4 0.00 0.00 0.00 73 1014.8
20260502123052 11 313 0.0 6.4 0.00 0.00 0.00 79 1014.1
20260502121547 11 0 0.0 4.8 0.00 0.00 0.00 80 1013.8
20260502114544 10 0 0.0 3.2 0.00 0.00 0.00 84 1014.0
20260502113041 10 0 0.0 4.8 0.00 0.00 0.00 83 1013.9
20260502111547 10 0 0.0 3.2 0.00 0.00 0.00 85 1013.8
20260502110053 10 0 0.0 3.2 0.00 0.00 0.00 86 1014.0
20260502104549 10 329 0.0 4.8 0.00 0.00 0.00 83 1014.1
20260502103045 10 332 0.0 4.8 0.00 0.00 0.00 85 1014.0
20260502101556 10 318 0.0 1.6 0.00 0.00 0.00 87 1014.1
20260502100107 10 0 0.0 1.6 0.00 0.00 0.00 89 1014.3
20260502070047 10 0 0.0 1.6 0.00 0.00 0.00 92 1013.1
20260502064553 10 0 0.0 4.8 0.00 0.00 0.00 92 1013.3
20260502063045 10 320 1.6 4.8 0.00 0.00 0.00 91 1013.4
20260502061548 10 329 1.6 3.2 0.00 0.00 0.00 91 1013.5
20260502060042 10 0 0.0 1.6 0.00 0.00 0.00 91 1013.1
20260502054547 10 0 0.0 3.2 0.00 0.00 0.00 90 1013.1
20260502053052 10 0 0.0 0.0 0.00 0.00 0.00 90 1013.2
20260502051548 10 0 0.0 0.0 0.00 0.00 0.00 90 1013.3
20260502050048 10 0 0.0 0.0 0.00 0.00 0.00 89 1013.6
20260502044549 10 0 0.0 1.6 0.00 0.00 0.00 89 1013.7
20260502043042 10 0 0.0 0.0 0.00 0.00 0.00 88 1013.6
20260502041539 10 0 0.0 1.6 0.00 0.00 0.00 88 1013.7
20260502040040 10 0 0.0 1.6 0.00 0.00 0.00 87 1013.8
20260502034546 10 0 0.0 1.6 0.00 0.00 0.00 87 1013.8
20260502033042 10 0 0.0 1.6 0.00 0.00 0.00 86 1013.8
20260502031550 10 0 0.0 3.2 0.00 0.00 0.00 85 1013.8
20260502030039 11 0 0.0 1.6 0.00 0.00 0.00 85 1013.9
20260502024553 11 0 0.0 1.6 0.00 0.00 0.00 85 1013.7
20260502023045 11 0 0.0 1.6 0.00 0.00 0.00 84 1013.8
20260502021541 11 0 0.0 3.2 0.00 0.00 0.00 83 1013.9
20260502020042 11 0 0.0 3.2 0.00 0.00 0.00 83 1013.9
20260502014540 11 0 0.0 3.2 0.00 0.00 0.00 83 1013.9
20260502013047 11 0 0.0 3.2 0.00 0.00 0.00 83 1013.8
20260502011545 12 131 0.0 4.8 0.00 0.00 0.00 83 1013.7
20260502010043 12 0 0.0 3.2 0.00 0.00 0.00 81 1013.5
20260502004550 12 0 0.0 3.2 0.00 0.00 0.00 81 1013.6
20260502003039 12 0 0.0 3.2 0.00 0.00 0.00 80 1013.4
20260502001535 12 75 0.0 3.2 0.00 0.00 0.00 79 1013.0
20260502000048 13 183 0.0 3.2 0.00 0.00 0.00 77 1013.0
20260501234547 13 183 0.0 3.2 0.00 0.00 0.00 76 1013.1
20260501233043 14 102 0.0 3.2 0.00 0.00 0.00 73 1013.1
20260501231548 15 140 0.0 4.8 0.00 0.00 0.00 72 1012.9
20260501230057 15 142 1.6 4.8 0.00 0.00 0.00 69 1013.1
20260501224547 15 140 1.6 4.8 0.00 0.00 0.00 68 1013.1
20260501223053 15 109 0.0 6.4 0.00 0.00 0.00 68 1013.2
20260501221542 16 244 0.0 8.0 0.00 0.00 0.00 67 1013.2
20260501220046 16 134 1.6 9.7 0.00 0.00 0.00 65 1013.1
20260501214555 16 134 0.0 6.4 0.00 0.00 0.00 63 1013.1
20260501213047 17 161 1.6 8.0 0.00 0.00 0.00 60 1013.1
20260501211553 17 155 1.6 6.4 0.00 0.00 0.00 58 1013.2
20260501210048 17 140 3.2 8.0 0.00 0.00 0.00 58 1013.3
20260501204614 18 78 1.6 8.0 0.00 0.00 0.00 56 1013.5
20260501203050 18 214 1.6 9.7 0.00 0.00 0.00 54 1013.3
20260501201540 18 69 1.6 8.0 0.00 0.00 0.00 54 1013.4
20260501200047 18 74 1.6 6.4 0.00 0.00 0.00 49 1013.6
20260501194545 18 263 1.6 4.8 0.00 0.00 0.00 51 1013.9
20260501193045 19 199 0.0 6.4 0.00 0.00 0.00 47 1014.2
20260501191541 19 58 1.6 6.4 0.00 0.00 0.00 49 1014.2
20260501190040 18 0 0.0 9.7 0.00 0.00 0.00 54 1014.5
20260501184539 18 165 1.6 6.4 0.00 0.00 0.00 52 1014.8